Location: Boiro
(42.6475°N, 8.8834°W)
Time: 00:40:00
(UTC+01:00)

Vanguard 2 Rocket - Pass Details

Date: 11 December 2021
Orbit: 553 x 3325 km, 32.9° (Epoch: 26 January)

Event Time Altitude Azimuth Distance (km) Brightness Sun altitude
Rises 22:43:22 0° 261° (W) 3,797 10.6 -50.6°
Reaches altitude 10° 22:46:23 10° 245° (WSW) 3,184 10.0 -51.1°
Enters shadow 22:47:13 13° 240° (WSW) 3,071 9.8 -51.3°
